{"data":{"norad_id":67389,"intl_designator":"2026-004AC","name":"HYDRA-2","alt_names":[],"object_type":"PAYLOAD","status":"ACTIVE","operator":null,"country":"SPN","launch_date":"2026-01-11","launch_site_code":"AFWTR","launch_vehicle":null,"mission":null,"orbit_class":"UNKNOWN","rcs_meters":null,"size_class":null,"mass_kg":null,"dimensions":null,"purposes":[],"wikipedia_slug":null,"has_3d_model":false,"image_url":null,"decayed_at":null,"tle_current":{"epoch":"2026-05-25T00:01:22.185408Z","epoch_age_seconds":72193,"freshness":"FRESH","line1":"1 67389U 26004AC  26145.00095122  .00004890  00000+0  24192-3 0  9993","line2":"2 67389  97.4585 144.3787 0005097  72.2851 287.8939 15.18263824 20236","mean_motion":15.18263824,"eccentricity":0.0005097,"inclination_deg":97.4585,"raan_deg":144.3787,"arg_perigee_deg":72.2851,"mean_anomaly_deg":287.8939,"bstar":0.00024192,"rev_number":2023,"period_min":94.845176262331,"perigee_km":507.57618674399,"apogee_km":514.59906232624,"semimajor_km":6889.2246245351,"source":"CELESTRAK","updated_at":"2026-05-25T13:38:06.957288Z"}}}